EWG8ET EDDL-LDSP

Flight info

Callsign EWG8ET
Flight time 1h 51m
Altitude 37000
Route DODEN7Z DODEN Y853 BOMBI DCT DETEV DCT DINKU M867 XERUM DCT BAVAX DCT RADIZ DCT ALIVO DCT NUPSO
Aircraft A319/M-SDE3FGHIRWY/LB1

Departure

Time 2026-05-07 10:45
Airport Düsseldorf Airport (EDDL)

Arrival

Time 2026-05-07 12:36
Airport Split Saint Jerome Airport (LDSP)
Time Latitude Longitude Altitude Speed Heading
2026-05-07 09:58 51.28061 6.76289 129 ft 0 kts 185°
2026-05-07 10:35 51.28063 6.76289 128 ft 2 kts 185°
2026-05-07 10:35 51.28088 6.76293 127 ft 4 kts 185°
2026-05-07 10:35 51.28115 6.76297 124 ft 4 kts 186°
2026-05-07 10:36 51.28142 6.76303 124 ft 4 kts 193°
2026-05-07 10:36 51.28168 6.76315 125 ft 4 kts 205°
2026-05-07 10:36 51.28189 6.76338 122 ft 4 kts 230°
2026-05-07 10:36 51.28202 6.76364 122 ft 0 kts 232°
2026-05-07 10:39 51.28201 6.76361 127 ft 2 kts 233°
2026-05-07 10:39 51.28183 6.76321 124 ft 6 kts 233°
2026-05-07 10:40 51.28191 6.76241 124 ft 8 kts 326°
2026-05-07 10:40 51.28245 6.76259 126 ft 10 kts 47°
2026-05-07 10:40 51.28294 6.76364 124 ft 14 kts 53°
2026-05-07 10:40 51.28361 6.76506 123 ft 17 kts 53°
2026-05-07 10:41 51.28438 6.76669 126 ft 19 kts 52°
2026-05-07 10:41 51.28520 6.76841 124 ft 20 kts 53°
2026-05-07 10:41 51.28605 6.77017 126 ft 20 kts 52°
2026-05-07 10:41 51.28693 6.77203 127 ft 22 kts 52°
2026-05-07 10:42 51.28788 6.77401 128 ft 23 kts 53°
2026-05-07 10:42 51.28889 6.77614 128 ft 25 kts 52°
2026-05-07 10:42 51.28999 6.77843 127 ft 27 kts 53°
2026-05-07 10:42 51.29110 6.78078 132 ft 26 kts 53°
2026-05-07 10:43 51.29216 6.78276 139 ft 17 kts 33°
2026-05-07 10:43 51.29316 6.78392 144 ft 18 kts 36°
2026-05-07 10:43 51.29398 6.78473 149 ft 13 kts 10°
2026-05-07 10:43 51.29493 6.78458 149 ft 13 kts 327°
2026-05-07 10:44 51.29483 6.78396 148 ft 4 kts 231°
2026-05-07 10:44 51.29471 6.78373 148 ft 6 kts 231°
2026-05-07 10:44 51.29325 6.78064 139 ft 74 kts 232°
2026-05-07 10:44 51.28872 6.77110 127 ft 140 kts 233°
2026-05-07 10:45 51.28207 6.75692 406 ft 164 kts 235°
2026-05-07 10:45 51.27535 6.74253 1129 ft 161 kts 235°
2026-05-07 10:45 51.26875 6.72855 1765 ft 154 kts 236°
2026-05-07 10:45 51.26241 6.71523 2274 ft 149 kts 236°
2026-05-07 10:46 51.25616 6.70148 2751 ft 158 kts 235°
2026-05-07 10:46 51.24948 6.68677 3283 ft 167 kts 237°
2026-05-07 10:46 51.24214 6.67162 3732 ft 187 kts 231°
2026-05-07 10:46 51.23240 6.65511 4145 ft 216 kts 226°
2026-05-07 10:47 51.22021 6.63911 4702 ft 236 kts 210°
2026-05-07 10:47 51.20474 6.63066 5713 ft 236 kts 187°
2026-05-07 10:47 51.18832 6.63155 6663 ft 239 kts 172°
2026-05-07 10:47 51.17148 6.63486 7472 ft 247 kts 174°
2026-05-07 10:48 51.15455 6.64070 8333 ft 252 kts 156°
2026-05-07 10:48 51.14049 6.65685 9275 ft 251 kts 129°
2026-05-07 10:48 51.13220 6.68117 10016 ft 256 kts 106°
2026-05-07 10:48 51.12940 6.71010 10374 ft 274 kts 89°
2026-05-07 10:49 51.13063 6.74080 10722 ft 292 kts 84°
2026-05-07 10:49 51.13243 6.77425 10912 ft 315 kts 84°
2026-05-07 10:49 51.13435 6.81023 11133 ft 334 kts 84°
2026-05-07 10:49 51.13617 6.84758 11685 ft 341 kts 85°
2026-05-07 10:50 51.13780 6.88549 12303 ft 346 kts 85°
2026-05-07 10:50 51.13930 6.92396 12935 ft 350 kts 85°
2026-05-07 10:50 51.14073 6.96285 13586 ft 353 kts 86°
2026-05-07 10:50 51.14213 7.00213 14152 ft 358 kts 86°
2026-05-07 10:51 51.14350 7.04183 14708 ft 361 kts 86°
2026-05-07 10:51 51.14487 7.08187 15283 ft 363 kts 86°
2026-05-07 10:51 51.14622 7.12224 15858 ft 367 kts 86°
2026-05-07 10:51 51.14637 7.16305 16453 ft 371 kts 96°
2026-05-07 10:52 51.13930 7.20254 17022 ft 375 kts 115°
2026-05-07 10:52 51.12445 7.23661 17575 ft 377 kts 133°
2026-05-07 10:52 51.10628 7.26706 18134 ft 381 kts 133°
2026-05-07 10:52 51.08790 7.29762 18646 ft 384 kts 134°
2026-05-07 10:53 51.06932 7.32838 19182 ft 386 kts 134°
2026-05-07 10:53 51.05062 7.35928 19722 ft 389 kts 134°
2026-05-07 10:53 51.03180 7.39040 20232 ft 392 kts 134°
2026-05-07 10:53 51.01290 7.42171 20791 ft 393 kts 134°
2026-05-07 10:54 50.99393 7.45316 21298 ft 396 kts 134°
2026-05-07 10:54 50.97478 7.48488 21726 ft 400 kts 134°
2026-05-07 10:54 50.95550 7.51683 22212 ft 402 kts 134°
2026-05-07 10:54 50.93604 7.54901 22658 ft 406 kts 134°
2026-05-07 10:55 50.91638 7.58144 23134 ft 409 kts 133°
2026-05-07 10:55 50.89662 7.61397 23619 ft 411 kts 134°
2026-05-07 10:55 50.87673 7.64667 24042 ft 413 kts 133°
2026-05-07 10:55 50.85670 7.67952 24457 ft 415 kts 133°
2026-05-07 10:56 50.83661 7.71244 24876 ft 417 kts 134°
2026-05-07 10:56 50.81642 7.74546 25306 ft 418 kts 133°
2026-05-07 10:56 50.79609 7.77867 25632 ft 422 kts 134°
2026-05-07 10:56 50.77565 7.81200 26043 ft 424 kts 134°
2026-05-07 10:57 50.75505 7.84553 26402 ft 427 kts 133°
2026-05-07 10:57 50.73432 7.87925 26749 ft 430 kts 134°
2026-05-07 10:57 50.71341 7.91321 27179 ft 431 kts 134°
2026-05-07 10:57 50.69249 7.94713 27578 ft 433 kts 134°
2026-05-07 10:58 50.67146 7.98122 27988 ft 434 kts 134°
2026-05-07 10:58 50.65040 8.01538 28436 ft 435 kts 134°
2026-05-07 10:58 50.62921 8.04967 28813 ft 438 kts 134°
2026-05-07 10:58 50.60784 8.08415 29178 ft 441 kts 135°
2026-05-07 10:59 50.58489 8.11619 29569 ft 443 kts 140°
2026-05-07 10:59 50.56114 8.14738 29857 ft 446 kts 140°
2026-05-07 10:59 50.53725 8.17872 30199 ft 448 kts 140°
2026-05-07 10:59 50.51324 8.21015 30443 ft 451 kts 140°
2026-05-07 11:00 50.48902 8.24176 30698 ft 454 kts 140°
2026-05-07 11:00 50.46468 8.27349 31004 ft 455 kts 140°
2026-05-07 11:00 50.44033 8.30523 31277 ft 457 kts 140°
2026-05-07 11:00 50.41584 8.33716 31546 ft 458 kts 140°
2026-05-07 11:01 50.39138 8.36909 31946 ft 457 kts 140°
2026-05-07 11:01 50.36696 8.40089 32350 ft 455 kts 141°
2026-05-07 11:01 50.34264 8.43251 32732 ft 454 kts 141°
2026-05-07 11:01 50.31829 8.46408 33069 ft 455 kts 141°
2026-05-07 11:02 50.29395 8.49554 33395 ft 455 kts 141°
2026-05-07 11:02 50.26947 8.52710 33736 ft 455 kts 141°
2026-05-07 11:02 50.24511 8.55844 34089 ft 454 kts 141°
2026-05-07 11:02 50.22074 8.58984 34384 ft 454 kts 141°
2026-05-07 11:03 50.19637 8.62119 34662 ft 454 kts 141°
2026-05-07 11:03 50.17200 8.65251 34941 ft 453 kts 142°
2026-05-07 11:03 50.14768 8.68369 35226 ft 453 kts 142°
2026-05-07 11:03 50.12337 8.71486 35497 ft 453 kts 142°
2026-05-07 11:04 50.09904 8.74603 35766 ft 452 kts 142°
2026-05-07 11:04 50.07537 8.77832 36010 ft 453 kts 135°
2026-05-07 11:04 50.05497 8.81571 36242 ft 454 kts 126°
2026-05-07 11:04 50.03863 8.85776 36457 ft 456 kts 117°
2026-05-07 11:05 50.02490 8.90228 36675 ft 456 kts 117°
2026-05-07 11:05 50.01117 8.94671 36893 ft 456 kts 117°
2026-05-07 11:05 49.99735 8.99115 37004 ft 456 kts 117°
2026-05-07 11:05 49.98349 9.03554 37023 ft 456 kts 117°
2026-05-07 11:06 49.95610 9.12287 37023 ft 456 kts 117°
2026-05-07 11:06 49.92872 9.21013 37013 ft 455 kts 117°
2026-05-07 11:07 49.90584 9.28294 37011 ft 455 kts 117°
2026-05-07 11:07 49.87797 9.37121 37010 ft 456 kts 117°
2026-05-07 11:08 49.84992 9.45930 37012 ft 456 kts 118°
2026-05-07 11:08 49.81845 9.54403 36997 ft 453 kts 130°
2026-05-07 11:09 49.77453 9.61312 37009 ft 450 kts 139°
2026-05-07 11:09 49.72883 9.67944 37005 ft 451 kts 139°
2026-05-07 11:10 49.68307 9.74569 37009 ft 451 kts 139°
2026-05-07 11:10 49.63723 9.81182 37016 ft 451 kts 139°
2026-05-07 11:11 49.59129 9.87786 37020 ft 451 kts 139°
2026-05-07 11:11 49.54534 9.94384 37020 ft 452 kts 139°
2026-05-07 11:12 49.49939 10.00963 37018 ft 452 kts 139°
2026-05-07 11:12 49.45332 10.07539 37025 ft 452 kts 139°
2026-05-07 11:13 49.40723 10.14088 37025 ft 452 kts 139°
2026-05-07 11:13 49.36107 10.20639 37028 ft 452 kts 139°
2026-05-07 11:14 49.31492 10.27177 37026 ft 452 kts 139°
2026-05-07 11:14 49.26867 10.33697 37024 ft 451 kts 140°
2026-05-07 11:15 49.22029 10.39756 37029 ft 447 kts 151°
2026-05-07 11:15 49.16692 10.44627 37035 ft 447 kts 152°
2026-05-07 11:16 49.11345 10.49474 37048 ft 447 kts 152°
2026-05-07 11:16 49.06001 10.54329 37048 ft 447 kts 152°
2026-05-07 11:17 49.00655 10.59183 37034 ft 447 kts 152°
2026-05-07 11:17 48.95306 10.64016 37041 ft 447 kts 152°
2026-05-07 11:18 48.89952 10.68835 37043 ft 447 kts 152°
2026-05-07 11:18 48.84596 10.73636 37042 ft 447 kts 152°
2026-05-07 11:19 48.79618 10.79305 37039 ft 453 kts 136°
2026-05-07 11:19 48.75392 10.86413 37037 ft 453 kts 135°
2026-05-07 11:20 48.71161 10.93486 37029 ft 453 kts 135°
2026-05-07 11:20 48.66925 11.00556 37023 ft 453 kts 135°
2026-05-07 11:21 48.62697 11.07619 37023 ft 453 kts 135°
2026-05-07 11:21 48.58455 11.14667 37027 ft 453 kts 135°
2026-05-07 11:22 48.54210 11.21709 37025 ft 453 kts 135°
2026-05-07 11:22 48.49958 11.28743 37011 ft 454 kts 135°
2026-05-07 11:23 48.45701 11.35756 37003 ft 454 kts 136°
2026-05-07 11:23 48.41439 11.42765 37024 ft 454 kts 136°
2026-05-07 11:24 48.37172 11.49765 37027 ft 454 kts 136°
2026-05-07 11:24 48.32903 11.56744 37030 ft 453 kts 136°
2026-05-07 11:25 48.28627 11.63715 37033 ft 453 kts 136°
2026-05-07 11:25 48.24290 11.70560 37028 ft 451 kts 140°
2026-05-07 11:26 48.19685 11.76929 37030 ft 450 kts 142°
2026-05-07 11:26 48.15000 11.83122 37028 ft 449 kts 142°
2026-05-07 11:27 48.10348 11.89380 37023 ft 449 kts 141°
2026-05-07 11:27 48.05738 11.95694 37018 ft 449 kts 141°
2026-05-07 11:28 48.01132 12.02007 36988 ft 449 kts 142°
2026-05-07 11:28 47.96518 12.08293 36999 ft 449 kts 142°
2026-05-07 11:29 47.91893 12.14558 37012 ft 449 kts 142°
2026-05-07 11:29 47.87269 12.20806 37012 ft 449 kts 142°
2026-05-07 11:30 47.82646 12.27047 37012 ft 449 kts 142°
2026-05-07 11:30 47.78015 12.33269 37014 ft 449 kts 142°
2026-05-07 11:31 47.73378 12.39486 37014 ft 449 kts 142°
2026-05-07 11:31 47.68737 12.45693 37013 ft 449 kts 142°
2026-05-07 11:32 47.61720 12.54861 37015 ft 446 kts 148°
2026-05-07 11:33 47.56739 12.60324 37016 ft 445 kts 148°
2026-05-07 11:33 47.51754 12.65774 36995 ft 445 kts 148°
2026-05-07 11:34 47.46774 12.71215 37005 ft 445 kts 148°
2026-05-07 11:34 47.41788 12.76642 37008 ft 445 kts 148°
2026-05-07 11:35 47.36807 12.82059 37017 ft 445 kts 148°
2026-05-07 11:35 47.31821 12.87469 37005 ft 445 kts 148°
2026-05-07 11:36 47.26828 12.92869 36975 ft 445 kts 149°
2026-05-07 11:36 47.21838 12.98251 36987 ft 444 kts 149°
2026-05-07 11:37 47.16857 13.03623 36995 ft 444 kts 149°
2026-05-07 11:37 47.11871 13.08978 36991 ft 444 kts 149°
2026-05-07 11:38 47.06883 13.14317 36984 ft 444 kts 149°
2026-05-07 11:38 47.01895 13.19645 36966 ft 444 kts 149°
2026-05-07 11:39 46.96904 13.24964 36941 ft 444 kts 149°
2026-05-07 11:39 46.91918 13.30279 36959 ft 443 kts 149°
2026-05-07 11:40 46.86919 13.35581 36961 ft 443 kts 149°
2026-05-07 11:40 46.81929 13.40863 36966 ft 443 kts 149°
2026-05-07 11:41 46.76940 13.46137 36953 ft 443 kts 150°
2026-05-07 11:41 46.71978 13.51368 36935 ft 443 kts 150°
2026-05-07 11:42 46.66988 13.56612 36954 ft 442 kts 150°
2026-05-07 11:42 46.62003 13.61840 36968 ft 442 kts 150°
2026-05-07 11:43 46.57016 13.67058 36971 ft 442 kts 150°
2026-05-07 11:43 46.52024 13.72264 36965 ft 442 kts 150°
2026-05-07 11:44 46.46989 13.77507 36968 ft 442 kts 150°
2026-05-07 11:44 46.42018 13.82672 36952 ft 442 kts 150°
2026-05-07 11:45 46.37019 13.87864 36979 ft 442 kts 150°
2026-05-07 11:45 46.31981 13.93077 36973 ft 442 kts 150°
2026-05-07 11:46 46.26974 13.98245 36985 ft 442 kts 150°
2026-05-07 11:46 46.22005 14.03360 36984 ft 442 kts 151°
2026-05-07 11:47 46.16997 14.08500 36967 ft 442 kts 151°
2026-05-07 11:47 46.11987 14.13632 36984 ft 441 kts 151°
2026-05-07 11:48 46.06985 14.18746 36978 ft 441 kts 151°
2026-05-07 11:48 46.01973 14.23862 36983 ft 442 kts 151°
2026-05-07 11:49 45.96955 14.28971 36988 ft 442 kts 151°
2026-05-07 11:49 45.91935 14.34079 36991 ft 442 kts 151°
2026-05-07 11:50 45.86925 14.39167 36995 ft 441 kts 152°
2026-05-07 11:50 45.82722 14.43418 37005 ft 441 kts 151°
2026-05-07 11:51 45.77698 14.48481 37012 ft 441 kts 152°
2026-05-07 11:51 45.72679 14.53530 37014 ft 441 kts 151°
2026-05-07 11:52 45.67663 14.58578 37021 ft 440 kts 152°
2026-05-07 11:52 45.62643 14.63614 37002 ft 440 kts 152°
2026-05-07 11:53 45.57625 14.68639 37001 ft 440 kts 152°
2026-05-07 11:53 45.52606 14.73638 37019 ft 440 kts 153°
2026-05-07 11:54 45.47448 14.78219 37024 ft 435 kts 157°
2026-05-07 11:54 45.42170 14.82399 37038 ft 434 kts 158°
2026-05-07 11:55 45.36888 14.86567 37026 ft 435 kts 158°
2026-05-07 11:55 45.31662 14.90821 37012 ft 436 kts 157°
2026-05-07 11:56 45.26410 14.95143 37023 ft 437 kts 157°
2026-05-07 11:56 45.21146 14.99454 37023 ft 437 kts 157°
2026-05-07 11:57 45.15880 15.03744 37009 ft 437 kts 157°
2026-05-07 11:57 45.10594 15.08023 37007 ft 437 kts 158°
2026-05-07 11:58 45.05300 15.12287 37018 ft 438 kts 157°
2026-05-07 11:58 44.99994 15.16572 36548 ft 442 kts 157°
2026-05-07 11:58 44.97319 15.18729 35993 ft 443 kts 158°
2026-05-07 11:59 44.94644 15.20885 35440 ft 442 kts 158°
2026-05-07 11:59 44.91977 15.23033 34893 ft 441 kts 158°
2026-05-07 11:59 44.89320 15.25170 34381 ft 439 kts 158°
2026-05-07 11:59 44.86675 15.27296 33832 ft 437 kts 158°
2026-05-07 12:00 44.84038 15.29415 33226 ft 435 kts 158°
2026-05-07 12:00 44.81417 15.31514 32635 ft 432 kts 158°
2026-05-07 12:00 44.78810 15.33599 32059 ft 429 kts 158°
2026-05-07 12:00 44.76222 15.35666 31460 ft 426 kts 158°
2026-05-07 12:01 44.73654 15.37717 30907 ft 423 kts 158°
2026-05-07 12:01 44.71102 15.39753 30348 ft 421 kts 158°
2026-05-07 12:01 44.68565 15.41775 29772 ft 418 kts 158°
2026-05-07 12:01 44.66045 15.43783 29150 ft 415 kts 158°
2026-05-07 12:02 44.63542 15.45775 28552 ft 412 kts 158°
2026-05-07 12:02 44.61056 15.47753 27960 ft 409 kts 158°
2026-05-07 12:02 44.58586 15.49717 27383 ft 407 kts 158°
2026-05-07 12:02 44.56130 15.51664 26815 ft 404 kts 158°
2026-05-07 12:03 44.53684 15.53594 26262 ft 402 kts 158°
2026-05-07 12:03 44.51258 15.55511 25712 ft 400 kts 158°
2026-05-07 12:03 44.48844 15.57420 25179 ft 398 kts 157°
2026-05-07 12:03 44.46436 15.59323 24628 ft 397 kts 156°
2026-05-07 12:04 44.44027 15.61223 24113 ft 397 kts 156°
2026-05-07 12:04 44.41629 15.63113 23608 ft 395 kts 156°
2026-05-07 12:04 44.39233 15.64998 23009 ft 394 kts 156°
2026-05-07 12:04 44.36844 15.66879 22420 ft 394 kts 156°
2026-05-07 12:05 44.34460 15.68753 21842 ft 394 kts 156°
2026-05-07 12:05 44.32073 15.70625 21269 ft 393 kts 156°
2026-05-07 12:05 44.29697 15.72489 20720 ft 391 kts 155°
2026-05-07 12:05 44.27325 15.74348 20152 ft 390 kts 156°
2026-05-07 12:06 44.24970 15.76194 19613 ft 388 kts 155°
2026-05-07 12:06 44.22621 15.78033 19084 ft 386 kts 155°
2026-05-07 12:06 44.20285 15.79860 18570 ft 384 kts 155°
2026-05-07 12:06 44.17957 15.81678 18000 ft 383 kts 155°
2026-05-07 12:07 44.15635 15.83490 17414 ft 382 kts 155°
2026-05-07 12:07 44.13318 15.85292 16836 ft 380 kts 155°
2026-05-07 12:07 44.11011 15.87033 16280 ft 376 kts 156°
2026-05-07 12:07 44.08711 15.88697 15826 ft 369 kts 156°
2026-05-07 12:08 44.06438 15.90304 15371 ft 364 kts 156°
2026-05-07 12:08 44.04194 15.91879 14931 ft 358 kts 156°
2026-05-07 12:08 44.01986 15.93430 14498 ft 354 kts 156°
2026-05-07 12:08 43.99808 15.94968 14069 ft 349 kts 156°
2026-05-07 12:09 43.97659 15.96493 13621 ft 346 kts 156°
2026-05-07 12:09 43.95530 15.98010 13146 ft 342 kts 156°
2026-05-07 12:09 43.93418 15.99517 12678 ft 341 kts 156°
2026-05-07 12:09 43.91320 16.01012 12216 ft 338 kts 156°
2026-05-07 12:10 43.89236 16.02487 11748 ft 334 kts 157°
2026-05-07 12:10 43.87064 16.03490 11302 ft 327 kts 172°
2026-05-07 12:10 43.84823 16.03684 10856 ft 320 kts 187°
2026-05-07 12:10 43.82647 16.03201 10422 ft 316 kts 193°
2026-05-07 12:11 43.80502 16.02633 9992 ft 313 kts 192°
2026-05-07 12:11 43.78366 16.02074 9522 ft 310 kts 192°
2026-05-07 12:11 43.76269 16.01530 9053 ft 303 kts 193°
2026-05-07 12:11 43.74215 16.01000 8650 ft 297 kts 192°
2026-05-07 12:12 43.72199 16.00479 8265 ft 293 kts 191°
2026-05-07 12:12 43.70210 15.99965 7883 ft 289 kts 192°
2026-05-07 12:12 43.68241 15.99454 7514 ft 287 kts 192°
2026-05-07 12:12 43.66280 15.98943 7144 ft 286 kts 192°
2026-05-07 12:13 43.64337 15.98437 6805 ft 283 kts 192°
2026-05-07 12:13 43.62429 15.97940 6512 ft 276 kts 191°
2026-05-07 12:13 43.60569 15.97456 6235 ft 269 kts 192°
2026-05-07 12:13 43.58747 15.96983 5956 ft 263 kts 191°
2026-05-07 12:14 43.56978 15.96522 5680 ft 254 kts 191°
2026-05-07 12:14 43.55269 15.96072 5403 ft 247 kts 191°
2026-05-07 12:14 43.53604 15.95638 5135 ft 240 kts 191°
2026-05-07 12:14 43.51996 15.95220 4887 ft 232 kts 191°
2026-05-07 12:15 43.50432 15.94901 4628 ft 223 kts 181°
2026-05-07 12:15 43.48920 15.95117 4380 ft 214 kts 166°
2026-05-07 12:15 43.47564 15.95846 4181 ft 204 kts 152°
2026-05-07 12:15 43.46422 15.96947 3960 ft 198 kts 143°
2026-05-07 12:16 43.45365 15.98079 3754 ft 187 kts 144°
2026-05-07 12:16 43.44353 15.99150 3556 ft 180 kts 144°
2026-05-07 12:16 43.43380 16.00178 3345 ft 173 kts 144°
2026-05-07 12:16 43.42445 16.01161 3143 ft 166 kts 144°
2026-05-07 12:17 43.41557 16.02131 2936 ft 161 kts 138°
2026-05-07 12:17 43.40927 16.03410 2741 ft 163 kts 117°
2026-05-07 12:17 43.40714 16.04951 2575 ft 167 kts 96°
2026-05-07 12:17 43.40976 16.06539 2421 ft 176 kts 72°
2026-05-07 12:18 43.41674 16.07941 2269 ft 179 kts 59°
2026-05-07 12:18 43.42418 16.09256 2127 ft 169 kts 60°
2026-05-07 12:18 43.43106 16.10478 2025 ft 156 kts 60°
2026-05-07 12:18 43.43756 16.11639 2001 ft 151 kts 61°
2026-05-07 12:19 43.44393 16.12779 1980 ft 149 kts 62°
2026-05-07 12:19 43.45024 16.13907 1951 ft 149 kts 62°
2026-05-07 12:19 43.45660 16.15044 1909 ft 151 kts 61°
2026-05-07 12:19 43.46311 16.16209 1909 ft 154 kts 62°
2026-05-07 12:20 43.46957 16.17362 1879 ft 152 kts 60°
2026-05-07 12:20 43.47607 16.18526 1814 ft 154 kts 59°
2026-05-07 12:20 43.48255 16.19681 1668 ft 149 kts 61°
2026-05-07 12:20 43.48378 16.19901 1630 ft 148 kts 62°
2026-05-07 12:21 43.48651 16.20343 1620 ft 148 kts 56°
2026-05-07 12:21 43.49272 16.21446 1366 ft 142 kts 58°
2026-05-07 12:21 43.49869 16.22541 1195 ft 146 kts 53°
2026-05-07 12:21 43.50491 16.23638 963 ft 141 kts 56°
2026-05-07 12:22 43.51071 16.24696 815 ft 137 kts 58°
2026-05-07 12:22 43.51642 16.25734 634 ft 137 kts 56°
2026-05-07 12:22 43.52224 16.26777 434 ft 140 kts 56°
2026-05-07 12:22 43.52812 16.27838 265 ft 139 kts 56°
2026-05-07 12:23 43.53389 16.28877 202 ft 143 kts 55°
2026-05-07 12:23 43.53678 16.29402 413 ft 150 kts 58°
2026-05-07 12:23 43.54318 16.30615 1181 ft 160 kts 57°
2026-05-07 12:23 43.54780 16.31978 1859 ft 156 kts 93°
2026-05-07 12:24 43.54404 16.33322 2441 ft 157 kts 135°
2026-05-07 12:24 43.53534 16.34303 2938 ft 168 kts 145°
2026-05-07 12:24 43.52521 16.35268 3275 ft 190 kts 146°
2026-05-07 12:24 43.51366 16.36382 3643 ft 212 kts 145°
2026-05-07 12:25 43.50162 16.37662 4301 ft 224 kts 143°
2026-05-07 12:25 43.48824 16.38918 4778 ft 247 kts 156°
2026-05-07 12:25 43.47127 16.39485 4955 ft 248 kts 179°
2026-05-07 12:25 43.45498 16.39057 5028 ft 234 kts 202°
2026-05-07 12:26 43.44158 16.37847 5029 ft 229 kts 215°
2026-05-07 12:26 43.42926 16.36491 4990 ft 226 kts 217°
2026-05-07 12:26 43.41741 16.35090 4957 ft 224 kts 218°
2026-05-07 12:26 43.40561 16.33664 4936 ft 227 kts 219°
2026-05-07 12:27 43.39406 16.32206 4945 ft 224 kts 220°
2026-05-07 12:27 43.38339 16.30662 4995 ft 229 kts 232°
2026-05-07 12:27 43.37511 16.28754 5011 ft 228 kts 234°
2026-05-07 12:27 43.36674 16.26927 5007 ft 226 kts 234°
2026-05-07 12:28 43.35817 16.25147 5007 ft 227 kts 233°
2026-05-07 12:28 43.34921 16.23320 5007 ft 227 kts 232°
2026-05-07 12:28 43.34047 16.21541 5008 ft 229 kts 232°
2026-05-07 12:28 43.33143 16.19702 5005 ft 229 kts 233°
2026-05-07 12:29 43.32259 16.17890 5005 ft 228 kts 232°
2026-05-07 12:29 43.31478 16.16056 4993 ft 223 kts 249°
2026-05-07 12:29 43.31382 16.14000 4997 ft 215 kts 279°
2026-05-07 12:29 43.32049 16.12225 5053 ft 209 kts 310°
2026-05-07 12:30 43.33165 16.10949 4914 ft 209 kts 319°
2026-05-07 12:30 43.34310 16.09742 4648 ft 206 kts 321°
2026-05-07 12:30 43.35446 16.08546 4388 ft 208 kts 319°
2026-05-07 12:30 43.36593 16.07336 4136 ft 207 kts 320°
2026-05-07 12:31 43.37736 16.06140 3923 ft 207 kts 322°
2026-05-07 12:31 43.39082 16.05486 3736 ft 209 kts 360°
2026-05-07 12:31 43.40448 16.06022 3559 ft 204 kts 39°
2026-05-07 12:31 43.41392 16.07409 3400 ft 198 kts 59°
2026-05-07 12:32 43.42229 16.08914 3223 ft 198 kts 58°
2026-05-07 12:32 43.43063 16.10406 3079 ft 196 kts 59°
2026-05-07 12:32 43.43902 16.11907 2999 ft 198 kts 59°
2026-05-07 12:32 43.44728 16.13378 2792 ft 191 kts 58°
2026-05-07 12:33 43.46267 16.16121 2318 ft 168 kts 61°
2026-05-07 12:33 43.46728 16.16946 2165 ft 161 kts 62°
2026-05-07 12:33 43.47398 16.18135 1936 ft 154 kts 62°
2026-05-07 12:34 43.48052 16.19269 1707 ft 148 kts 63°
2026-05-07 12:34 43.48663 16.20366 1545 ft 141 kts 61°
2026-05-07 12:34 43.49252 16.21467 1349 ft 140 kts 60°
2026-05-07 12:34 43.49846 16.22516 1187 ft 140 kts 55°
2026-05-07 12:35 43.50429 16.23564 1015 ft 136 kts 58°
2026-05-07 12:35 43.51003 16.24595 839 ft 135 kts 59°
2026-05-07 12:35 43.51567 16.25633 654 ft 137 kts 56°
2026-05-07 12:35 43.52151 16.26664 463 ft 136 kts 59°
2026-05-07 12:36 43.52725 16.27697 302 ft 134 kts 58°
2026-05-07 12:36 43.53289 16.28703 106 ft 131 kts 57°
2026-05-07 12:36 43.53780 16.29589 79 ft 83 kts 53°
2026-05-07 12:36 43.53987 16.29963 67 ft 24 kts 52°
2026-05-07 12:37 43.54043 16.30102 64 ft 11 kts 123°
2026-05-07 12:37 43.53969 16.30084 62 ft 10 kts 194°
2026-05-07 12:37 43.53919 16.30065 68 ft 5 kts 197°
2026-05-07 12:37 43.53885 16.30041 60 ft 6 kts 224°
2026-05-07 12:38 43.53861 16.29980 64 ft 8 kts 237°
2026-05-07 12:38 43.53825 16.29915 66 ft 9 kts 234°
2026-05-07 12:38 43.53784 16.29838 63 ft 11 kts 232°
2026-05-07 12:38 43.53749 16.29777 65 ft 8 kts 232°
2026-05-07 12:39 43.53726 16.29733 68 ft 4 kts 234°
2026-05-07 12:39 43.53703 16.29743 68 ft 4 kts 116°
2026-05-07 12:39 43.53701 16.29791 64 ft 4 kts 113°
2026-05-07 12:39 43.53693 16.29816 64 ft 0 kts 114°